Theta_e
316 316 316 316 315 315 314 314 315 315 315 315 316 316 316 316 316 313 310 318 317 325 318 309 310 314 314 311 313 313 305 301 304 305 308 315 310 314 316 316 318 319 319 322 324
315 315 314 314 314 314 314 314 314 314 315 315 316 315 315 316 312 310 321 327 326 319 309 306 305 311 309 309 310 307 303 304 309 310 309 312 313 313 310 312 314 318 322 324 323
315 315 314 314 314 314 314 313 314 314 314 315 315 315 314 315 313 314 324 323 322 316 311 313 310 309 307 309 308 307 303 306 309 312 313 312 312 314 310 308 313 316 320 321 320
314 313 313 313 313 313 313 313 314 313 314 314 314 314 314 314 304 312 325 323 320 317 316 310 307 305 304 304 308 304 307 308 309 310 310 310 314 312 313 313 318 319 322 320 318
312 313 313 313 313 313 313 313 314 314 313 314 314 314 314 312 312 317 326 321 317 317 312 309 305 304 302 305 307 305 307 308 310 310 310 311 310 312 313 318 320 319 319 319 320
312 312 312 312 312 312 313 314 314 314 314 314 314 314 312 308 319 317 319 317 318 314 313 311 308 308 304 304 304 307 307 307 308 308 309 308 309 311 315 319 317 317 317 319 319
312 312 311 312 312 313 313 314 315 315 315 314 314 315 310 311 317 320 318 315 315 313 310 312 311 307 307 303 307 306 302 305 306 307 306 309 305 307 314 318 316 316 317 317 318
311 311 311 311 312 313 314 315 315 315 315 315 315 314 311 319 318 316 317 314 314 314 312 313 312 308 305 307 305 302 303 297 303 305 306 306 298 307 313 314 312 313 314 315 318
310 311 311 312 313 313 314 314 316 317 316 315 315 314 309 316 310 315 315 311 312 312 311 312 309 305 305 300 297 300 294 297 299 305 305 304 299 306 309 310 311 313 314 313 314
312 311 312 312 313 313 314 314 317 314 315 318 317 310 313 308 310 312 314 312 307 308 307 306 304 300 300 298 291 294 295 297 297 302 304 302 302 306 308 307 309 310 313 313 313
311 311 312 313 313 313 313 316 312 312 316 311 308 311 309 312 314 310 312 309 308 305 299 304 299 296 298 300 300 299 297 296 299 304 301 301 301 303 306 307 306 309 312 312 313
310 311 312 313 313 313 313 312 310 312 304 313 309 309 311 312 305 308 312 304 303 298 302 300 297 302 303 301 300 299 296 296 300 302 301 300 299 303 305 306 308 309 309 311 313
310 310 311 312 312 312 315 312 316 316 305 309 307 306 308 309 304 305 309 305 301 299 299 297 299 303 301 299 297 297 295 295 295 299 301 299 297 299 303 306 307 309 311 312 311
310 310 311 311 310 317 313 315 317 318 300 303 302 306 309 308 303 310 309 305 302 298 300 299 302 300 299 296 298 293 299 299 297 295 290 300 289 298 301 303 305 307 308 309 310
310 310 310 310 313 311 313 317 319 316 291 302 303 312 308 304 305 305 310 305 299 299 300 297 299 298 296 297 299 295 300 298 297 295 294 294 291 295 300 299 302 305 307 309 311
309 309 309 315 313 317 318 320 316 300 291 299 303 301 301 303 303 305 305 307 305 300 300 299 304 301 299 301 300 301 297 297 297 294 287 292 291 292 296 299 303 305 306 308 309
308 308 307 317 314 319 319 314 300 294 304 299 299 302 301 300 301 303 301 300 297 294 294 298 299 301 302 297 300 298 294 286 285 286 285 294 292 295 301 303 304 304 305 308 310
306 305 311 316 320 320 316 305 293 301 301 304 301 301 297 300 300 301 300 297 301 299 295 291 290 298 302 298 295 296 294 287 281 283 286 293 288 294 302 305 306 306 307 308 308
304 317 316 321 321 317 307 296 297 301 302 299 299 296 297 300 300 298 298 297 299 301 294 292 292 302 301 302 300 295 292 298 290 291 287 290 294 299 302 302 303 303 304 305 307
308 316 316 323 321 314 302 296 300 305 304 301 295 298 295 297 297 298 297 301 299 302 303 297 291 298 300 301 301 297 299 290 290 282 280 287 288 289 297 299 301 301 302 305 308
310 311 318 321 318 307 297 299 303 305 304 299 296 296 297 296 297 296 297 300 302 301 302 299 296 294 298 295 294 295 293 294 293 291 284 282 286 298 298 301 302 302 304 305 307
311 304 317 317 303 305 301 302 302 303 305 302 301 299 297 298 296 296 296 299 304 302 297 300 295 290 293 299 300 298 295 295 289 286 289 288 288 301 302 301 304 303 305 306 308
305 307 316 313 299 299 302 300 301 300 300 299 298 300 301 298 294 297 298 303 303 301 298 299 294 288 290 294 298 294 295 295 294 294 288 285 288 302 302 302 303 304 305 307 309
306 301 308 308 307 301 298 297 297 302 300 301 298 300 298 296 299 295 297 301 303 301 305 301 294 291 285 289 293 290 291 294 292 286 289 289 291 296 299 299 301 302 305 305 304
307 303 305 297 299 300 300 299 296 296 300 300 297 297 296 293 295 294 297 299 301 305 301 299 289 292 292 293 293 293 292 293 290 290 287 291 291 295 299 301 303 304 304 304 306
299 298 301 299 303 300 299 297 295 295 295 294 293 295 296 293 294 292 295 295 294 298 298 299 289 293 290 293 292 290 293 293 293 293 293 294 292 299 302 303 302 303 304 305 307
305 304 301 298 300 298 297 297 296 296 296 297 295 294 293 295 298 298 299 298 297 294 294 294 291 290 285 291 290 287 292 293 294 295 294 290 296 301 299 302 303 304 305 305 306
Wind_Speed
17 17 16 15 14 13 14 14 14 15 15 16 16 15 15 16 19 18 14 4 4 5 4 12 15 15 17 18 20 20 14 14 21 23 18 17 11 14 5 14 17 17 13 12 10
17 17 16 16 15 14 13 14 15 14 15 15 15 15 15 16 18 19 2 6 8 3 9 12 13 14 14 19 17 19 17 23 20 19 19 23 20 21 11 13 17 23 14 10 15
17 17 16 16 16 14 13 13 13 13 14 14 14 15 15 17 11 5 6 4 4 3 11 15 14 16 17 17 20 22 21 22 23 23 24 21 23 9 11 16 19 21 18 5 8
19 18 18 17 16 15 14 12 12 11 12 12 13 13 14 9 3 7 8 6 3 7 12 12 12 15 18 19 20 24 25 25 24 24 26 23 23 11 13 13 13 9 13 4 6
18 18 18 17 16 15 14 12 12 11 11 11 11 10 9 8 9 11 10 8 9 12 14 11 12 14 18 18 21 24 24 22 23 24 23 24 26 13 19 17 13 14 15 9 6
19 19 18 18 17 15 14 13 12 12 12 11 9 7 7 11 15 12 10 10 14 10 8 9 10 11 17 18 20 20 21 23 21 22 21 24 26 19 22 19 12 9 10 14 11
17 18 19 18 17 16 15 14 13 12 12 10 7 7 10 15 2 11 8 10 0 7 9 6 8 10 11 14 17 18 23 19 23 17 21 24 22 26 23 15 16 19 16 15 17
19 18 19 18 17 17 17 16 15 14 12 9 7 9 8 13 2 7 11 8 6 7 7 11 7 11 13 14 18 13 17 19 20 20 21 22 23 24 22 19 19 20 16 17 19
20 18 18 18 18 18 17 16 15 11 10 7 7 10 10 5 10 10 10 10 8 6 8 8 8 13 14 14 13 15 16 20 23 23 20 23 27 22 23 20 20 19 19 12 13
19 18 17 18 18 17 16 15 6 4 8 10 12 9 9 10 11 3 7 5 7 9 8 11 11 12 13 12 15 16 21 21 22 20 22 26 26 23 17 19 21 22 13 11 10
21 18 17 17 18 13 13 6 7 8 13 13 5 12 2 1 1 8 10 8 9 10 12 14 12 13 17 17 20 20 21 22 20 18 15 12 14 15 15 22 20 12 7 8 11
22 21 19 17 18 13 7 8 9 8 10 18 12 12 5 4 7 11 10 9 12 12 14 14 14 14 15 20 13 13 17 20 19 22 17 15 14 15 19 22 18 16 14 13 12
21 21 20 18 18 9 13 6 8 8 9 12 11 13 9 11 12 10 14 12 14 14 14 14 15 19 10 12 12 17 18 19 22 19 19 16 19 18 20 21 21 17 17 17 18
22 20 18 20 6 11 6 5 9 7 7 12 8 9 10 7 15 11 7 10 14 15 14 13 14 17 14 11 16 19 16 18 16 17 14 15 16 20 20 25 26 22 15 14 14
23 22 19 8 12 9 9 7 8 5 6 11 11 8 6 14 4 11 9 10 15 15 16 15 16 10 12 15 19 17 15 17 15 17 14 19 15 16 20 20 16 13 14 12 13
23 21 19 6 7 14 6 7 6 7 6 7 6 8 11 13 13 7 10 12 10 16 17 20 19 20 13 15 13 11 14 18 16 13 16 22 20 19 19 20 19 17 16 11 10
25 22 11 9 7 9 9 7 7 8 3 2 3 7 10 13 13 14 16 17 15 17 18 19 22 22 21 18 16 16 14 12 15 15 16 17 19 17 18 8 7 13 9 9 12
27 20 9 8 11 8 7 7 8 13 13 8 3 12 16 16 16 18 18 15 18 18 17 18 19 19 13 14 16 18 15 9 8 12 14 14 9 8 11 10 11 13 12 11 11
30 4 5 10 6 4 7 8 12 12 13 11 15 17 18 17 14 7 14 18 16 16 19 18 21 19 7 10 14 17 16 16 10 15 16 18 14 13 16 7 14 11 7 5 4
8 8 4 8 2 4 6 12 20 21 10 11 17 16 19 18 17 10 14 11 9 8 12 18 19 16 21 3 17 17 15 14 5 6 15 18 17 8 14 18 11 10 10 9 8
5 5 5 2 3 6 8 13 17 15 14 13 17 20 19 21 21 20 20 18 16 10 12 15 15 17 18 11 17 14 15 18 14 9 11 16 10 4 12 3 9 10 9 11 8
6 6 6 5 6 6 7 17 20 19 16 15 17 18 18 18 20 19 21 20 19 3 16 13 9 10 23 19 12 18 17 11 14 10 11 13 16 10 4 3 11 9 6 6 12
7 10 5 3 5 9 14 17 21 19 12 11 14 19 17 17 20 18 19 19 15 15 8 5 5 8 14 17 9 11 15 12 17 13 16 12 12 6 1 7 11 11 10 12 11
7 6 3 6 5 6 12 15 15 19 19 17 13 13 15 17 17 18 21 21 18 6 14 10 11 15 14 19 5 5 10 17 9 7 17 18 21 17 10 13 7 19 17 10 24
6 5 5 6 10 14 12 15 17 17 15 13 14 16 18 18 18 17 20 20 18 4 6 4 11 21 17 21 23 25 21 14 11 20 15 22 20 18 11 17 15 11 17 21 36
5 6 7 12 12 13 11 14 16 16 16 17 17 17 14 15 18 20 19 17 18 19 8 10 6 18 19 20 24 25 24 24 23 27 28 29 25 18 19 20 19 22 16 9 15
8 8 6 9 13 12 13 19 19 17 14 13 20 18 16 19 18 18 16 17 18 18 17 17 13 13 16 19 16 14 20 22 20 19 18 18 17 20 20 24 16 6 3 7 15
Wind_Direction
334 334 332 330 328 326 323 320 318 316 313 312 313 313 314 315 302 258 248 272 187 76 329 270 282 234 230 241 242 230 234 243 251 264 276 276 180 221 241 231 228 263 298 329 32
334 332 327 326 323 324 319 316 313 311 308 307 309 312 316 319 297 272 171 124 124 104 252 242 245 230 232 229 237 234 240 239 239 247 259 276 270 210 204 216 256 206 259 339 19
331 329 326 322 319 318 315 310 308 307 306 304 307 310 315 312 280 107 141 147 126 212 247 263 255 255 235 237 231 235 245 250 253 245 254 253 270 158 202 213 256 222 224 234 35
329 328 325 323 318 314 310 304 302 300 298 302 304 309 312 288 332 97 145 128 166 257 253 257 250 248 249 241 243 246 242 248 253 268 274 262 265 168 220 258 209 278 236 109 48
328 326 323 320 316 311 303 297 295 292 290 291 296 313 299 231 253 133 138 167 215 222 237 234 237 241 251 247 251 244 249 252 251 248 263 275 269 266 190 233 191 236 266 204 171
330 326 323 319 315 310 302 293 284 277 275 277 284 296 251 258 109 140 184 183 239 237 261 270 261 262 266 263 261 268 260 258 257 255 254 258 265 266 242 190 210 201 237 256 204
328 325 322 319 314 309 303 294 284 273 266 260 262 261 262 255 307 153 208 237 328 285 282 245 301 299 275 261 273 270 272 273 270 254 269 266 257 258 262 216 215 208 198 234 256
332 328 323 318 313 310 305 303 291 271 253 245 246 252 258 211 304 200 209 245 233 263 269 304 284 278 282 289 282 259 270 257 253 255 250 259 252 249 260 266 260 253 214 232 228
334 329 325 319 314 311 310 309 292 258 245 226 232 221 246 118 223 237 235 248 222 229 257 272 284 269 267 251 257 253 254 254 253 248 251 230 247 250 253 262 256 240 245 206 259
337 331 324 319 315 315 312 302 326 211 220 206 259 248 259 228 198 245 238 267 265 264 248 233 248 249 242 247 251 254 240 235 245 253 246 233 238 235 234 244 254 255 226 214 242
338 332 326 319 315 319 316 225 210 204 234 263 185 247 273 242 349 239 237 220 251 252 261 253 241 243 250 248 250 260 276 287 291 298 263 247 264 277 278 265 243 249 218 202 225
337 334 328 320 314 316 275 256 26 320 295 230 248 246 286 271 259 213 224 231 234 248 259 235 243 256 264 274 303 304 293 285 281 278 283 280 244 252 259 267 258 222 220 232 220
336 333 328 321 316 285 241 346 307 305 280 245 212 223 207 215 239 258 195 230 251 265 263 271 278 288 283 302 278 262 265 272 278 277 275 253 265 266 261 264 264 242 205 213 207
333 331 327 323 291 288 256 346 294 19 277 168 206 224 195 221 242 230 229 231 250 260 275 287 309 287 279 257 266 270 272 279 269 268 270 279 270 260 253 229 230 236 234 212 232
330 329 323 317 314 296 5 316 342 259 281 152 148 96 218 210 325 201 230 236 256 276 286 267 274 249 261 268 264 268 292 285 295 291 281 263 266 265 268 266 248 210 215 221 211
328 326 327 237 217 257 318 331 266 235 262 158 169 217 216 225 239 234 190 217 264 284 282 278 282 273 265 274 265 296 297 284 279 265 261 261 258 265 261 263 265 176 193 182 210
324 317 299 304 292 348 331 276 247 255 60 222 216 229 231 264 262 224 233 237 241 251 255 251 246 243 242 236 252 256 244 260 250 239 248 259 263 246 263 223 202 141 156 176 180
320 312 224 244 289 331 296 257 259 278 338 6 320 286 273 283 270 259 263 253 253 249 263 276 278 276 211 240 258 252 237 263 290 286 287 325 283 275 347 196 152 147 165 170 185
313 189 235 230 240 299 276 246 250 286 324 336 322 295 283 272 256 283 280 290 288 279 282 280 280 290 38 227 243 261 249 242 297 295 274 267 241 272 287 223 150 149 159 196 225
313 269 283 141 170 265 257 260 289 284 327 320 299 303 296 296 302 242 244 265 274 285 308 297 297 290 294 185 261 247 262 274 226 278 278 282 280 283 320 215 177 190 200 181 193
272 248 107 232 172 245 256 271 293 338 340 315 298 299 301 305 305 299 293 294 296 259 260 280 277 275 275 221 244 245 242 260 284 221 238 262 269 254 332 273 232 189 177 195 198
304 279 133 190 255 244 268 342 332 311 304 288 288 281 277 287 286 288 289 293 306 302 292 286 304 270 277 289 278 230 267 263 235 239 255 298 282 184 126 306 295 288 190 219 230
288 287 147 228 289 337 326 320 320 297 310 320 306 302 299 295 294 288 289 296 308 301 216 265 256 286 288 284 337 346 329 322 310 243 241 243 253 196 350 329 309 255 247 238 212
280 304 131 223 234 288 330 314 313 321 306 296 287 303 298 285 280 284 283 284 291 312 36 344 284 261 273 284 210 214 222 271 283 296 283 263 282 284 148 223 265 279 304 344 306
267 331 7 302 325 316 311 306 304 308 325 327 317 302 299 305 306 301 302 305 307 315 258 290 278 282 271 278 276 280 273 226 223 246 272 277 263 275 266 221 227 230 255 235 242
332 341 342 300 286 286 298 317 320 330 338 313 301 298 297 299 302 306 311 306 305 310 206 213 270 272 266 277 284 281 291 271 260 222 234 247 268 279 275 281 250 224 248 325 312
356 325 283 294 294 316 340 322 316 316 310 309 309 305 306 308 320 311 297 284 281 281 282 288 289 310 288 285 302 276 261 263 283 289 283 277 318 360 348 336 282 288 329 323 308